CW2099 Weather Reports


Display with metric or nautical units.
time (UTC)temp
F
wind
direction
speed
MPH
gust
MPH
rain 1hr
in
rain 24hr
in
rain mn
in
humidity
%
barometer
mb
20260509191524 53 125 4.0 10.0 0.00 0.00 0.00 21 1003.6
20260509190023 53 135 3.0 10.0 0.00 0.00 0.00 21 1003.1
20260509184520 53 104 2.0 8.0 0.00 0.00 0.00 21 1002.7
20260509183018 52 172 2.0 8.0 0.00 0.00 0.00 22 1002.3
20260509181516 52 129 2.0 6.0 0.00 0.00 0.00 22 1002.4
20260509180013 53 123 3.0 8.0 0.00 0.00 0.00 21 1002.1
20260509174514 53 159 3.0 6.0 0.00 0.00 0.00 22 1001.9
20260509173012 52 119 2.0 6.0 0.00 0.00 0.00 24 1001.9
20260509171513 52 135 2.0 9.0 0.00 0.00 0.00 23 1001.6
20260509170010 51 140 2.0 8.0 0.00 0.00 0.00 25 1001.5
20260509164508 52 192 2.0 8.0 0.00 0.00 0.00 23 1001.3
20260509163016 53 165 2.0 8.0 0.00 0.00 0.00 21 1001.1
20260509161504 52 198 1.0 4.0 0.00 0.00 0.00 24 1001.0
20260509160002 50 131 1.0 6.0 0.00 0.00 0.00 24 1000.8
20260509154501 49 116 2.0 5.0 0.00 0.00 0.00 24 1000.7
20260509153100 50 160 2.0 8.0 0.00 0.00 0.00 24 1000.7
20260509151558 51 250 2.0 7.0 0.00 0.00 0.00 24 1000.5
20260509150055 51 169 2.0 8.0 0.00 0.00 0.00 27 1000.0
20260509143055 51 40 2.0 6.0 0.00 0.00 0.00 39 999.5
20260509141551 50 144 2.0 6.0 0.00 0.00 0.00 42 999.7
20260509140100 49 109 1.0 4.0 0.00 0.00 0.00 44 999.6
20260509133045 47 82 2.0 5.0 0.00 0.00 0.00 44 999.5
20260509131554 47 37 2.0 4.0 0.00 0.00 0.00 42 999.4
20260509130047 47 59 1.0 3.0 0.00 0.00 0.00 42 999.2
20260509123042 48 117 0.0 4.0 0.00 0.00 0.00 39 999.2
20260509121556 48 44 1.0 4.0 0.00 0.00 0.00 38 999.3
20260509120041 48 100 0.0 2.0 0.00 0.00 0.00 36 999.4
20260509113042 47 127 0.0 2.0 0.00 0.00 0.00 38 999.0
20260509111540 46 127 0.0 3.0 0.00 0.00 0.00 39 998.6
20260509110040 46 127 1.0 4.0 0.00 0.00 0.00 36 998.3
20260509103037 47 132 0.0 2.0 0.00 0.00 0.00 36 998.2
20260509101537 48 132 1.0 4.0 0.00 0.00 0.00 35 998.1
20260509100035 48 126 1.0 7.0 0.00 0.00 0.00 37 998.0
20260509093035 48 100 0.0 2.0 0.00 0.00 0.00 39 998.5
20260509091533 47 18 0.0 3.0 0.00 0.00 0.00 41 998.6
20260509090030 47 62 0.0 3.0 0.00 0.00 0.00 42 998.5
20260509083035 46 20 0.0 2.0 0.00 0.00 0.00 44 998.1
20260509081524 45 46 0.0 0.0 0.00 0.00 0.00 46 998.5
20260509080154 45 46 0.0 0.0 0.00 0.00 0.00 48 998.4
20260509073020 43 10 0.0 2.0 0.00 0.00 0.00 53 997.7
20260509071517 43 10 0.0 0.0 0.00 0.00 0.00 57 998.0
20260509070016 43 10 0.0 0.0 0.00 0.00 0.00 58 998.1
20260509063013 43 10 0.0 0.0 0.00 0.00 0.00 56 998.5
20260509061516 43 10 0.0 0.0 0.00 0.00 0.00 58 998.6
20260509060012 43 10 0.0 0.0 0.00 0.00 0.00 58 998.9
20260509053003 44 10 0.0 0.0 0.00 0.00 0.00 56 999.1
20260509051501 45 10 0.0 0.0 0.00 0.00 0.00 58 999.2
20260509050058 45 10 0.0 0.0 0.00 0.00 0.00 57 999.5
20260509043105 46 10 0.0 0.0 0.00 0.00 0.00 54 999.9
20260509041601 46 10 0.0 0.0 0.00 0.00 0.00 51 1000.1
20260509033052 47 10 0.0 0.0 0.00 0.00 0.00 41 1000.6
20260509031602 48 10 0.0 0.0 0.00 0.00 0.00 41 1000.8
20260509030049 48 10 0.0 2.0 0.00 0.00 0.00 40 1001.1
20260509023047 50 10 0.0 0.0 0.00 0.00 0.00 37 1001.2
20260509021544 50 10 0.0 0.0 0.00 0.00 0.00 35 1001.4
20260509020051 51 10 0.0 0.0 0.00 0.00 0.00 32 1001.4
20260509013050 54 10 0.0 1.0 0.00 0.00 0.00 32 1001.4
20260509011541 55 10 0.0 0.0 0.00 0.00 0.00 26 1001.4
20260509010050 56 10 0.0 3.0 0.00 0.00 0.00 25 1001.5
20260509003038 57 34 0.0 2.0 0.00 0.00 0.00 24 1001.6
20260509001536 57 144 0.0 3.0 0.00 0.00 0.00 24 1001.8
20260509000035 58 139 1.0 7.0 0.00 0.00 0.00 25 1001.9
20260508233014 58 26 3.0 8.0 0.00 0.00 0.00 20 1002.4
20260508231510 59 61 1.0 6.0 0.00 0.00 0.00 19 1002.3
20260508230004 59 82 1.0 9.0 0.00 0.00 0.00 19 1002.3
20260508224502 59 150 1.0 4.0 0.00 0.00 0.00 20 1002.5
20260508223003 59 70 1.0 6.0 0.00 0.00 0.00 19 1002.6
20260508221502 59 44 1.0 4.0 0.00 0.00 0.00 17 1002.5
20260508220100 60 101 4.0 12.0 0.00 0.00 0.00 17 1002.6
20260508214606 60 131 1.0 6.0 0.00 0.00 0.00 17 1002.7
20260508213057 60 85 2.0 5.0 0.00 0.00 0.00 17 1002.7
20260508211556 59 65 2.0 16.0 0.00 0.00 0.00 18 1002.8
20260508210057 59 44 2.0 8.0 0.00 0.00 0.00 18 1003.1
20260508204553 59 351 6.0 15.0 0.00 0.00 0.00 18 1003.1
20260508203052 59 65 3.0 9.0 0.00 0.00 0.00 18 1003.5
20260508201551 59 156 3.0 8.0 0.00 0.00 0.00 18 1003.7
20260508200055 59 129 2.0 11.0 0.00 0.00 0.00 17 1003.8
20260508194547 59 30 5.0 17.0 0.00 0.00 0.00 16 1004.2
20260508193051 59 56 2.0 14.0 0.00 0.00 0.00 17 1004.2